Time,TemperatureF,DewpointF,PressureIn,WindDirection,WindDirectionDegrees,WindSpeedMPH,WindSpeedGustMPH,Humidity,HourlyPrecipIn,Conditions,Clouds,dailyrainin,SoftwareType,DateUTC
2013-06-09 00:00:00,66.7,62.4,30.06,NNW,346,0.0,0.0,86,0.00,,,0.28,Wunderground v.1.15,2013-06-09 04:00:00,
2013-06-09 00:05:00,66.9,63.2,30.05,NNW,346,0.0,0.0,88,0.00,,,0.28,Wunderground v.1.15,2013-06-09 04:05:00,
2013-06-09 00:10:00,67.0,63.6,30.05,NNW,346,0.0,0.0,89,0.00,,,0.28,Wunderground v.1.15,2013-06-09 04:10:00,
2013-06-09 00:15:00,67.0,64.0,30.05,NNW,346,0.0,0.0,90,0.00,,,0.28,Wunderground v.1.15,2013-06-09 04:15:00,
2013-06-09 00:20:00,67.0,64.0,30.05,NNW,346,0.0,0.0,90,0.00,,,0.28,Wunderground v.1.15,2013-06-09 04:20:00,
2013-06-09 00:25:00,66.9,63.9,30.05,NNW,346,0.0,0.0,90,0.00,,,0.28,Wunderground v.1.15,2013-06-09 04:25:00,
2013-06-09 00:35:00,66.7,64.0,30.05,NNW,346,0.0,0.0,91,0.00,,,0.28,Wunderground v.1.15,2013-06-09 04:35:00,
2013-06-09 00:40:00,66.6,63.9,30.05,NNW,346,0.0,0.0,91,0.00,,,0.28,Wunderground v.1.15,2013-06-09 04:40:00,
2013-06-09 00:45:00,66.6,64.2,30.05,NNW,346,0.0,0.0,92,0.00,,,0.28,Wunderground v.1.15,2013-06-09 04:45:00,
2013-06-09 00:55:00,66.4,64.0,30.05,NNW,346,0.0,0.0,92,0.00,,,0.28,Wunderground v.1.15,2013-06-09 04:55:00,
2013-06-09 01:00:00,66.3,63.9,30.05,NNW,346,0.0,0.0,92,0.00,,,0.28,Wunderground v.1.15,2013-06-09 05:00:00,
2013-06-09 01:05:00,66.2,63.8,30.05,NNW,346,0.0,0.0,92,0.00,,,0.28,Wunderground v.1.15,2013-06-09 05:05:00,
2013-06-09 01:15:00,66.0,63.9,30.05,NNW,346,0.0,0.0,93,0.00,,,0.28,Wunderground v.1.15,2013-06-09 05:15:00,
2013-06-09 01:20:00,65.9,63.8,30.05,NNW,346,0.0,0.0,93,0.00,,,0.28,Wunderground v.1.15,2013-06-09 05:20:00,
2013-06-09 01:25:00,65.8,63.7,30.05,NNW,346,0.0,0.0,93,0.00,,,0.28,Wunderground v.1.15,2013-06-09 05:25:00,
2013-06-09 01:30:00,65.6,63.5,30.05,NNW,346,0.0,0.0,93,0.00,,,0.28,Wunderground v.1.15,2013-06-09 05:30:00,
2013-06-09 01:35:00,65.3,63.2,30.05,NNW,346,0.0,0.0,93,0.00,,,0.28,Wunderground v.1.15,2013-06-09 05:35:00,
2013-06-09 01:45:00,64.7,62.6,30.05,NNW,346,0.0,0.0,93,0.00,,,0.28,Wunderground v.1.15,2013-06-09 05:45:00,
2013-06-09 01:50:00,64.5,62.7,30.05,NNW,346,0.0,0.0,94,0.00,,,0.00,Wunderground v.1.15,2013-06-09 05:50:00,
2013-06-09 01:55:00,64.7,62.9,30.05,NNW,346,0.0,0.0,94,0.00,,,0.00,Wunderground v.1.15,2013-06-09 05:55:00,
2013-06-09 02:05:00,64.8,63.3,30.05,NNW,346,0.0,0.0,95,0.00,,,0.00,Wunderground v.1.15,2013-06-09 06:05:00,
2013-06-09 02:15:00,64.6,63.1,30.05,NNW,346,0.0,0.0,95,0.00,,,0.00,Wunderground v.1.15,2013-06-09 06:15:00,
2013-06-09 02:20:00,64.6,63.1,30.05,NNW,346,0.0,0.0,95,0.00,,,0.00,Wunderground v.1.15,2013-06-09 06:20:00,
2013-06-09 02:25:00,64.7,63.5,30.05,NNW,346,0.0,0.0,96,0.00,,,0.00,Wunderground v.1.15,2013-06-09 06:25:00,
2013-06-09 02:35:00,64.8,63.6,30.05,NNW,346,0.0,0.0,96,0.00,,,0.00,Wunderground v.1.15,2013-06-09 06:35:00,
2013-06-09 02:40:00,64.6,63.4,30.04,NNW,346,0.0,0.0,96,0.00,,,0.00,Wunderground v.1.15,2013-06-09 06:40:00,
2013-06-09 02:45:00,64.4,63.2,30.04,NNW,346,0.0,0.0,96,0.00,,,0.00,Wunderground v.1.15,2013-06-09 06:45:00,
2013-06-09 02:50:00,64.3,63.1,30.04,NNW,346,0.0,0.0,96,0.00,,,0.00,Wunderground v.1.15,2013-06-09 06:50:00,
2013-06-09 02:55:00,64.0,62.5,30.04,NNW,346,0.0,0.0,95,0.00,,,0.00,Wunderground v.1.15,2013-06-09 06:55:00,
2013-06-09 03:00:00,63.7,62.2,30.04,NNW,346,0.0,0.0,95,0.00,,,0.00,Wunderground v.1.15,2013-06-09 07:00:00,
2013-06-09 03:05:00,63.6,62.4,30.04,NNW,346,0.0,0.0,96,0.00,,,0.00,Wunderground v.1.15,2013-06-09 07:05:00,
2013-06-09 03:14:00,63.8,62.9,30.05,NNW,346,0.0,0.0,97,0.00,,,0.00,Wunderground v.1.15,2013-06-09 07:14:00,
2013-06-09 03:20:00,64.0,63.1,30.05,NNW,346,0.0,0.0,97,0.00,,,0.00,Wunderground v.1.15,2013-06-09 07:20:00,
2013-06-09 03:24:00,64.0,63.1,30.05,NNW,346,0.0,0.0,97,0.00,,,0.00,Wunderground v.1.15,2013-06-09 07:24:00,
2013-06-09 03:30:00,64.1,63.2,30.05,NNW,346,0.0,0.0,97,0.00,,,0.00,Wunderground v.1.15,2013-06-09 07:30:00,
2013-06-09 03:40:00,64.0,63.1,30.05,NNW,346,0.0,0.0,97,0.00,,,0.00,Wunderground v.1.15,2013-06-09 07:40:00,
2013-06-09 03:45:00,63.8,62.6,30.05,NNW,346,0.0,0.0,96,0.00,,,0.00,Wunderground v.1.15,2013-06-09 07:45:00,
2013-06-09 03:55:00,63.3,61.8,30.05,NNW,346,0.0,0.0,95,0.00,,,0.00,Wunderground v.1.15,2013-06-09 07:55:00,
2013-06-09 04:00:00,63.3,61.8,30.05,NNW,346,0.0,0.0,95,0.00,,,0.00,Wunderground v.1.15,2013-06-09 08:00:00,
2013-06-09 04:05:00,63.4,61.9,30.06,NNW,346,0.0,0.0,95,0.00,,,0.00,Wunderground v.1.15,2013-06-09 08:05:00,
2013-06-09 04:15:00,63.6,62.1,30.05,NNW,346,0.0,0.0,95,0.00,,,0.00,Wunderground v.1.15,2013-06-09 08:15:00,
2013-06-09 04:20:00,63.6,62.1,30.05,NNW,346,0.0,0.0,95,0.00,,,0.00,Wunderground v.1.15,2013-06-09 08:20:00,
2013-06-09 04:30:00,63.7,62.2,30.05,NNW,346,0.0,0.0,95,0.00,,,0.00,Wunderground v.1.15,2013-06-09 08:30:00,
2013-06-09 04:35:00,63.6,62.1,30.05,NNW,346,0.0,0.0,95,0.00,,,0.00,Wunderground v.1.15,2013-06-09 08:35:00,
2013-06-09 04:45:00,63.5,62.3,30.06,NNW,346,0.0,0.0,96,0.00,,,0.00,Wunderground v.1.15,2013-06-09 08:45:00,
2013-06-09 04:50:00,63.5,62.3,30.06,NNW,346,0.0,0.0,96,0.00,,,0.00,Wunderground v.1.15,2013-06-09 08:50:00,
2013-06-09 04:55:00,63.4,62.2,30.05,NNW,346,0.0,0.0,96,0.00,,,0.00,Wunderground v.1.15,2013-06-09 08:55:00,
2013-06-09 05:00:00,63.4,62.2,30.06,NNW,346,0.0,0.0,96,0.00,,,0.00,Wunderground v.1.15,2013-06-09 09:00:00,
2013-06-09 05:05:00,63.3,62.1,30.05,NNW,346,0.0,0.0,96,0.00,,,0.00,Wunderground v.1.15,2013-06-09 09:05:00,
2013-06-09 05:15:00,62.9,61.4,30.06,NNW,346,0.0,0.0,95,0.00,,,0.00,Wunderground v.1.15,2013-06-09 09:15:00,
2013-06-09 05:20:00,62.3,60.8,30.06,NNW,346,0.0,0.0,95,0.00,,,0.00,Wunderground v.1.15,2013-06-09 09:20:00,
2013-06-09 05:30:00,61.9,61.0,30.07,NNW,346,0.0,0.0,97,0.00,,,0.00,Wunderground v.1.15,2013-06-09 09:30:00,
2013-06-09 05:35:00,62.0,61.1,30.07,NNW,346,0.0,0.0,97,0.00,,,0.00,Wunderground v.1.15,2013-06-09 09:35:00,
2013-06-09 05:40:00,62.2,61.3,30.07,NNW,346,0.0,0.0,97,0.00,,,0.00,Wunderground v.1.15,2013-06-09 09:40:00,
2013-06-09 05:45:00,62.2,61.3,30.07,NNW,346,0.0,0.0,97,0.00,,,0.00,Wunderground v.1.15,2013-06-09 09:45:00,
2013-06-09 05:50:00,62.1,61.2,30.07,NNW,346,0.0,0.0,97,0.00,,,0.00,Wunderground v.1.15,2013-06-09 09:50:00,
2013-06-09 05:55:00,62.0,61.1,30.07,NNW,346,0.0,0.0,97,0.00,,,0.00,Wunderground v.1.15,2013-06-09 09:55:00,
2013-06-09 06:00:00,61.9,61.0,30.07,NNW,346,0.0,0.0,97,0.00,,,0.00,Wunderground v.1.15,2013-06-09 10:00:00,
2013-06-09 06:10:00,61.7,60.8,30.08,NNW,346,0.0,0.0,97,0.00,,,0.00,Wunderground v.1.15,2013-06-09 10:10:00,
2013-06-09 06:20:00,61.7,60.8,30.08,NNW,346,0.0,0.0,97,0.00,,,0.00,Wunderground v.1.15,2013-06-09 10:20:00,
2013-06-09 06:25:00,61.6,60.7,30.07,NNW,346,0.0,0.0,97,0.00,,,0.00,Wunderground v.1.15,2013-06-09 10:25:00,
2013-06-09 06:30:00,61.6,61.0,30.08,NNW,346,0.0,0.0,98,0.00,,,0.00,Wunderground v.1.15,2013-06-09 10:30:00,
2013-06-09 06:35:00,61.8,61.2,30.08,NNW,346,0.0,0.0,98,0.00,,,0.00,Wunderground v.1.15,2013-06-09 10:35:00,
2013-06-09 06:40:00,61.9,61.3,30.08,NNW,346,0.0,0.0,98,0.00,,,0.00,Wunderground v.1.15,2013-06-09 10:40:00,
2013-06-09 06:50:00,62.0,61.4,30.08,NNW,346,0.0,0.0,98,0.00,,,0.00,Wunderground v.1.15,2013-06-09 10:50:00,
2013-06-09 06:55:00,62.1,61.5,30.08,NNW,346,0.0,0.0,98,0.00,,,0.00,Wunderground v.1.15,2013-06-09 10:55:00,
2013-06-09 07:00:00,62.1,61.5,30.08,NNW,346,0.0,0.0,98,0.00,,,0.00,Wunderground v.1.15,2013-06-09 11:00:00,
2013-06-09 07:05:00,62.1,61.5,30.08,NNW,346,0.0,0.0,98,0.00,,,0.00,Wunderground v.1.15,2013-06-09 11:05:00,
2013-06-09 07:15:00,62.1,61.5,30.09,NNW,346,0.0,0.0,98,0.00,,,0.00,Wunderground v.1.15,2013-06-09 11:15:00,
2013-06-09 07:20:00,62.0,61.4,30.08,NNW,346,0.0,0.0,98,0.00,,,0.00,Wunderground v.1.15,2013-06-09 11:20:00,
2013-06-09 07:30:00,62.0,61.4,30.08,NNW,346,0.0,0.0,98,0.00,,,0.00,Wunderground v.1.15,2013-06-09 11:30:00,
2013-06-09 07:35:00,62.1,61.5,30.08,NNW,346,0.0,0.0,98,0.00,,,0.00,Wunderground v.1.15,2013-06-09 11:35:00,
2013-06-09 07:40:00,62.1,61.5,30.08,NNW,346,0.0,0.0,98,0.00,,,0.00,Wunderground v.1.15,2013-06-09 11:40:00,
2013-06-09 07:45:00,62.0,61.4,30.08,NNW,346,0.0,0.0,98,0.00,,,0.00,Wunderground v.1.15,2013-06-09 11:45:00,
2013-06-09 07:50:00,62.1,61.5,30.09,NNW,346,0.0,0.0,98,0.00,,,0.00,Wunderground v.1.15,2013-06-09 11:50:00,
2013-06-09 08:00:00,62.1,61.5,30.09,NNW,346,0.0,0.0,98,0.00,,,0.00,Wunderground v.1.15,2013-06-09 12:00:00,
2013-06-09 08:05:00,62.1,61.5,30.10,NNW,346,0.0,1.0,98,0.00,,,0.00,Wunderground v.1.15,2013-06-09 12:05:00,
2013-06-09 08:15:00,62.4,61.8,30.10,NNW,346,0.0,1.0,98,0.00,,,0.00,Wunderground v.1.15,2013-06-09 12:15:00,
2013-06-09 08:20:00,62.5,61.9,30.09,NNW,346,0.0,1.0,98,0.00,,,0.00,Wunderground v.1.15,2013-06-09 12:20:00,
2013-06-09 08:25:00,62.5,61.9,30.09,NNW,346,0.0,1.0,98,0.00,,,0.00,Wunderground v.1.15,2013-06-09 12:25:00,
2013-06-09 08:30:00,62.6,62.0,30.09,NNW,346,0.0,1.0,98,0.00,,,0.00,Wunderground v.1.15,2013-06-09 12:30:00,
2013-06-09 08:35:00,62.7,62.1,30.09,NNW,346,0.0,1.0,98,0.00,,,0.00,Wunderground v.1.15,2013-06-09 12:35:00,
2013-06-09 08:40:00,63.1,62.8,30.09,NNW,346,0.0,1.0,99,0.00,,,0.00,Wunderground v.1.15,2013-06-09 12:40:00,
2013-06-09 08:45:00,63.4,62.8,30.10,NNW,346,0.0,1.0,98,0.00,,,0.00,Wunderground v.1.15,2013-06-09 12:45:00,
2013-06-09 08:50:00,63.4,62.8,30.09,NNW,346,0.0,1.0,98,0.00,,,0.00,Wunderground v.1.15,2013-06-09 12:50:00,
2013-06-09 08:55:00,63.5,62.9,30.09,NNW,346,0.0,1.0,98,0.00,,,0.00,Wunderground v.1.15,2013-06-09 12:55:00,
2013-06-09 09:05:00,63.9,63.3,30.09,NNW,346,0.0,1.0,98,0.00,,,0.00,Wunderground v.1.15,2013-06-09 13:05:00,
2013-06-09 09:15:00,64.4,64.1,30.09,NNW,346,0.0,1.0,99,0.00,,,0.00,Wunderground v.1.15,2013-06-09 13:15:00,
2013-06-09 09:20:00,64.5,64.2,30.09,NNW,346,0.0,1.0,99,0.00,,,0.00,Wunderground v.1.15,2013-06-09 13:20:00,
2013-06-09 09:25:00,64.7,64.1,30.09,NNW,346,0.0,1.0,98,0.00,,,0.00,Wunderground v.1.15,2013-06-09 13:25:00,
2013-06-09 09:30:00,64.7,64.1,30.09,NNW,346,0.0,1.0,98,0.00,,,0.00,Wunderground v.1.15,2013-06-09 13:30:00,
2013-06-09 09:40:00,64.8,64.2,30.09,NNW,346,0.0,1.0,98,0.00,,,0.00,Wunderground v.1.15,2013-06-09 13:40:00,
2013-06-09 09:45:00,65.0,64.4,30.09,NNW,346,0.0,1.0,98,0.00,,,0.00,Wunderground v.1.15,2013-06-09 13:45:00,
2013-06-09 09:55:00,65.6,65.0,30.09,NNW,346,0.0,1.0,98,0.00,,,0.00,Wunderground v.1.15,2013-06-09 13:55:00,
2013-06-09 10:00:00,66.0,65.4,30.09,NNW,346,0.0,1.0,98,0.00,,,0.00,Wunderground v.1.15,2013-06-09 14:00:00,
2013-06-09 10:05:00,66.4,65.5,30.09,NNW,346,0.0,1.0,97,0.00,,,0.00,Wunderground v.1.15,2013-06-09 14:05:00,
2013-06-09 10:15:00,67.9,65.8,30.08,NNW,346,0.0,4.0,93,0.00,,,0.00,Wunderground v.1.15,2013-06-09 14:15:00,
2013-06-09 10:20:00,68.0,65.6,30.08,SSW,209,0.0,1.0,92,0.00,,,0.00,Wunderground v.1.15,2013-06-09 14:20:00,
2013-06-09 10:30:00,68.6,65.9,30.08,SW,217,0.0,1.0,91,0.00,,,0.00,Wunderground v.1.15,2013-06-09 14:30:00,
2013-06-09 10:35:00,69.2,66.5,30.08,SW,217,0.0,1.0,91,0.00,,,0.00,Wunderground v.1.15,2013-06-09 14:35:00,
2013-06-09 10:40:00,69.5,66.4,30.07,SW,217,0.0,1.0,90,0.00,,,0.00,Wunderground v.1.15,2013-06-09 14:40:00,
2013-06-09 10:45:00,69.9,66.5,30.07,SW,217,0.0,1.0,89,0.00,,,0.00,Wunderground v.1.15,2013-06-09 14:45:00,
2013-06-09 10:50:00,70.2,66.5,30.07,SW,221,0.0,1.0,88,0.00,,,0.00,Wunderground v.1.15,2013-06-09 14:50:00,
2013-06-09 10:55:00,70.7,66.3,30.07,SW,221,0.0,1.0,86,0.00,,,0.00,Wunderground v.1.15,2013-06-09 14:55:00,
2013-06-09 11:05:00,71.2,66.8,30.07,SW,220,0.0,7.0,86,0.00,,,0.00,Wunderground v.1.15,2013-06-09 15:05:00,
2013-06-09 11:10:00,71.2,66.5,30.07,SW,220,0.0,7.0,85,0.00,,,0.00,Wunderground v.1.15,2013-06-09 15:10:00,
2013-06-09 11:19:00,71.3,66.9,30.07,SW,220,0.0,7.0,86,0.00,,,0.00,Wunderground v.1.15,2013-06-09 15:19:00,
2013-06-09 11:25:00,71.7,66.9,30.07,SW,219,0.0,7.0,85,0.00,,,0.00,Wunderground v.1.15,2013-06-09 15:25:00,
2013-06-09 11:30:00,71.8,67.4,30.07,SW,219,0.0,7.0,86,0.00,,,0.00,Wunderground v.1.15,2013-06-09 15:30:00,
2013-06-09 11:35:00,72.3,67.9,30.07,SW,219,0.0,7.0,86,0.00,,,0.00,Wunderground v.1.15,2013-06-09 15:35:00,
2013-06-09 11:40:00,73.6,69.2,30.07,SSW,210,0.0,7.0,86,0.00,,,0.00,Wunderground v.1.15,2013-06-09 15:40:00,
2013-06-09 11:45:00,74.7,69.5,30.07,SSW,205,0.0,7.0,84,0.00,,,0.00,Wunderground v.1.15,2013-06-09 15:45:00,
2013-06-09 11:50:00,74.8,67.5,30.06,SSW,196,0.0,7.0,78,0.00,,,0.00,Wunderground v.1.15,2013-06-09 15:50:00,
2013-06-09 12:00:00,74.0,67.4,30.06,WSW,254,1.0,7.0,80,0.00,,,0.00,Wunderground v.1.15,2013-06-09 16:00:00,
2013-06-09 12:05:00,74.5,69.0,30.06,SSW,196,0.0,7.0,83,0.00,,,0.00,Wunderground v.1.15,2013-06-09 16:05:00,
2013-06-09 12:15:00,75.0,68.8,30.06,SSW,193,0.0,6.0,81,0.00,,,0.00,Wunderground v.1.15,2013-06-09 16:15:00,
2013-06-09 12:20:00,75.1,68.5,30.05,SSW,208,0.0,6.0,80,0.00,,,0.00,Wunderground v.1.15,2013-06-09 16:20:00,
2013-06-09 12:25:00,74.9,67.6,30.05,SE,128,0.0,6.0,78,0.00,,,0.00,Wunderground v.1.15,2013-06-09 16:25:00,
2013-06-09 12:30:00,75.0,69.5,30.04,SW,224,0.0,6.0,83,0.00,,,0.00,Wunderground v.1.15,2013-06-09 16:30:00,
2013-06-09 12:35:00,76.4,70.1,30.04,NW,320,0.0,6.0,81,0.00,,,0.00,Wunderground v.1.15,2013-06-09 16:35:00,
2013-06-09 12:40:00,76.0,68.6,30.04,SSW,201,1.0,1.0,78,0.00,,,0.00,Wunderground v.1.15,2013-06-09 16:40:00,
2013-06-09 12:45:00,75.3,68.3,30.04,NNW,337,0.0,6.0,79,0.00,,,0.00,Wunderground v.1.15,2013-06-09 16:45:00,
2013-06-09 12:55:00,74.3,68.4,30.04,South,169,0.0,6.0,82,0.00,,,0.00,Wunderground v.1.15,2013-06-09 16:55:00,
2013-06-09 13:00:00,74.6,68.7,30.04,South,169,0.0,6.0,82,0.00,,,0.00,Wunderground v.1.15,2013-06-09 17:00:00,
2013-06-09 13:05:00,75.0,69.8,30.03,NNW,344,0.0,6.0,84,0.00,,,0.00,Wunderground v.1.15,2013-06-09 17:05:00,
2013-06-09 13:15:00,75.6,68.3,30.03,SSW,210,0.0,6.0,78,0.00,,,0.00,Wunderground v.1.15,2013-06-09 17:15:00,
2013-06-09 13:25:00,75.4,68.8,30.02,SSW,205,1.0,6.0,80,0.00,,,0.00,Wunderground v.1.15,2013-06-09 17:25:00,
2013-06-09 13:30:00,75.3,68.3,30.03,NW,306,0.0,6.0,79,0.00,,,0.00,Wunderground v.1.15,2013-06-09 17:30:00,
2013-06-09 13:35:00,74.6,68.0,30.02,NNW,342,0.0,6.0,80,0.00,,,0.00,Wunderground v.1.15,2013-06-09 17:35:00,
2013-06-09 13:40:00,74.2,68.3,30.02,WNW,290,0.0,6.0,82,0.00,,,0.00,Wunderground v.1.15,2013-06-09 17:40:00,
2013-06-09 13:45:00,73.5,67.7,30.02,SSW,194,0.0,6.0,82,0.00,,,0.00,Wunderground v.1.15,2013-06-09 17:45:00,
2013-06-09 13:50:00,72.5,67.0,30.02,South,187,0.0,6.0,83,0.00,,,0.00,Wunderground v.1.15,2013-06-09 17:50:00,
2013-06-09 13:55:00,71.3,67.2,30.01,WSW,256,0.0,6.0,87,0.00,,,0.00,Wunderground v.1.15,2013-06-09 17:55:00,
2013-06-09 14:00:00,71.1,67.7,30.01,WSW,237,1.0,1.0,89,0.00,,,0.00,Wunderground v.1.15,2013-06-09 18:00:00,
2013-06-09 14:05:00,71.2,68.1,30.01,WSW,247,1.0,6.0,90,0.00,,,0.00,Wunderground v.1.15,2013-06-09 18:05:00,
2013-06-09 14:15:00,72.2,67.8,30.01,NW,323,0.0,6.0,86,0.00,,,0.00,Wunderground v.1.15,2013-06-09 18:15:00,
2013-06-09 14:25:00,73.9,69.8,30.00,NNW,336,0.0,6.0,87,0.00,,,0.00,Wunderground v.1.15,2013-06-09 18:25:00,
2013-06-09 14:30:00,74.9,68.7,30.00,NW,314,0.0,6.0,81,0.00,,,0.00,Wunderground v.1.15,2013-06-09 18:30:00,
2013-06-09 14:40:00,74.8,68.2,29.99,SW,222,0.0,6.0,80,0.00,,,0.00,Wunderground v.1.15,2013-06-09 18:40:00,
2013-06-09 14:45:00,74.1,68.3,29.98,NNW,331,0.0,6.0,82,0.00,,,0.00,Wunderground v.1.15,2013-06-09 18:45:00,
2013-06-09 14:55:00,75.0,69.5,29.98,WSW,257,0.0,6.0,83,0.00,,,0.00,Wunderground v.1.15,2013-06-09 18:55:00,
2013-06-09 15:00:00,76.1,70.6,29.98,SW,230,0.0,6.0,83,0.00,,,0.00,Wunderground v.1.15,2013-06-09 19:00:00,
2013-06-09 15:05:00,76.4,69.8,29.98,South,179,0.0,6.0,80,0.00,,,0.00,Wunderground v.1.15,2013-06-09 19:05:00,
2013-06-09 15:15:00,75.6,68.3,29.97,South,186,0.0,6.0,78,0.00,,,0.00,Wunderground v.1.15,2013-06-09 19:15:00,
2013-06-09 15:20:00,75.3,68.7,29.97,SW,219,0.0,6.0,80,0.00,,,0.00,Wunderground v.1.15,2013-06-09 19:20:00,
2013-06-09 15:25:00,75.1,68.9,29.98,SW,234,0.0,6.0,81,0.00,,,0.00,Wunderground v.1.15,2013-06-09 19:25:00,
2013-06-09 15:30:00,74.6,69.1,29.98,SW,234,0.0,6.0,83,0.00,,,0.00,Wunderground v.1.15,2013-06-09 19:30:00,
2013-06-09 15:35:00,74.4,69.6,29.97,WNW,289,0.0,6.0,85,0.00,,,0.00,Wunderground v.1.15,2013-06-09 19:35:00,
2013-06-09 15:45:00,74.7,70.6,29.97,NW,319,0.0,6.0,87,0.00,,,0.00,Wunderground v.1.15,2013-06-09 19:45:00,
2013-06-09 15:50:00,75.6,70.4,29.97,SW,232,1.0,1.0,84,0.00,,,0.00,Wunderground v.1.15,2013-06-09 19:50:00,
2013-06-09 15:55:00,75.6,70.1,29.97,SW,230,1.0,6.0,83,0.00,,,0.00,Wunderground v.1.15,2013-06-09 19:55:00,
2013-06-09 16:00:00,75.5,69.3,29.97,SSW,207,1.0,1.0,81,0.00,,,0.00,Wunderground v.1.15,2013-06-09 20:00:00,
2013-06-09 16:05:00,75.1,69.9,29.97,SW,227,0.0,7.0,84,0.00,,,0.00,Wunderground v.1.15,2013-06-09 20:05:00,
2013-06-09 16:15:00,74.4,69.6,29.97,SSW,195,1.0,7.0,85,0.00,,,0.00,Wunderground v.1.15,2013-06-09 20:15:00,
2013-06-09 16:20:00,73.7,68.9,29.97,SSW,208,0.0,7.0,85,0.00,,,0.00,Wunderground v.1.15,2013-06-09 20:20:00,
2013-06-09 16:30:00,72.2,68.4,29.97,WSW,241,0.0,7.0,88,0.00,,,0.00,Wunderground v.1.15,2013-06-09 20:30:00,
2013-06-09 16:35:00,71.3,67.9,29.98,WNW,293,0.0,7.0,89,0.00,,,0.01,Wunderground v.1.15,2013-06-09 20:35:00,
2013-06-09 16:40:00,70.5,67.4,29.99,South,171,0.0,7.0,90,3.65,,,0.08,Wunderground v.1.15,2013-06-09 20:40:00,
2013-06-09 16:45:00,69.0,66.3,29.98,SSE,167,0.0,7.0,91,0.36,,,0.21,Wunderground v.1.15,2013-06-09 20:45:00,
2013-06-09 16:50:00,68.1,65.7,29.98,SW,219,0.0,7.0,92,0.15,,,0.22,Wunderground v.1.15,2013-06-09 20:50:00,
2013-06-09 16:55:00,67.7,65.9,29.99,SSW,192,0.0,7.0,94,0.09,,,0.23,Wunderground v.1.15,2013-06-09 20:55:00,
2013-06-09 17:00:00,67.3,65.8,30.00,South,189,2.0,2.0,95,3.65,,,0.49,Wunderground v.1.15,2013-06-09 21:00:00,
2013-06-09 17:05:00,66.7,65.2,30.01,West,265,1.0,7.0,95,0.57,,,0.66,Wunderground v.1.15,2013-06-09 21:05:00,
2013-06-09 17:15:00,66.2,65.3,30.01,North,349,1.0,7.0,97,0.09,,,0.68,Wunderground v.1.15,2013-06-09 21:15:00,
2013-06-09 17:20:00,66.0,65.1,30.00,SW,219,0.0,7.0,97,0.21,,,0.70,Wunderground v.1.15,2013-06-09 21:20:00,
2013-06-09 17:25:00,65.8,64.9,30.00,South,187,0.0,7.0,97,0.19,,,0.71,Wunderground v.1.15,2013-06-09 21:25:00,
2013-06-09 17:30:00,65.6,64.7,30.00,SSE,159,0.0,7.0,97,0.51,,,0.75,Wunderground v.1.15,2013-06-09 21:30:00,
2013-06-09 17:35:00,65.5,64.9,29.99,WSW,256,0.0,7.0,98,0.27,,,0.77,Wunderground v.1.15,2013-06-09 21:35:00,
2013-06-09 17:45:00,65.5,64.9,29.99,West,263,0.0,7.0,98,0.31,,,0.83,Wunderground v.1.15,2013-06-09 21:45:00,
2013-06-09 17:50:00,65.6,65.0,29.99,West,263,0.0,7.0,98,0.19,,,0.84,Wunderground v.1.15,2013-06-09 21:50:00,
2013-06-09 17:55:00,65.8,65.2,29.99,West,263,0.0,7.0,98,0.13,,,0.85,Wunderground v.1.15,2013-06-09 21:55:00,
2013-06-09 18:00:00,66.1,65.8,29.99,West,262,0.0,7.0,99,0.06,,,0.85,Wunderground v.1.15,2013-06-09 22:00:00,
2013-06-09 18:05:00,66.2,65.9,29.99,South,191,0.0,10.0,99,0.04,,,0.85,Wunderground v.1.15,2013-06-09 22:05:00,
2013-06-09 18:15:00,65.8,65.2,29.98,SW,225,0.0,10.0,98,0.00,,,0.85,Wunderground v.1.15,2013-06-09 22:15:00,
2013-06-09 18:20:00,65.5,64.9,29.99,WSW,249,0.0,10.0,98,0.00,,,0.85,Wunderground v.1.15,2013-06-09 22:20:00,
2013-06-09 18:30:00,65.1,64.5,29.99,NW,323,0.0,10.0,98,0.00,,,0.86,Wunderground v.1.15,2013-06-09 22:30:00,
2013-06-09 18:35:00,65.1,64.5,29.99,WNW,294,0.0,10.0,98,0.00,,,0.86,Wunderground v.1.15,2013-06-09 22:35:00,
2013-06-09 18:40:00,65.1,64.8,29.99,WNW,295,0.0,10.0,99,0.00,,,0.86,Wunderground v.1.15,2013-06-09 22:40:00,
2013-06-09 18:45:00,65.1,64.8,29.99,WNW,297,0.0,10.0,99,0.00,,,0.86,Wunderground v.1.15,2013-06-09 22:45:00,
2013-06-09 18:50:00,65.1,64.8,29.99,NW,305,0.0,10.0,99,0.00,,,0.86,Wunderground v.1.15,2013-06-09 22:50:00,
2013-06-09 18:55:00,65.0,64.7,29.99,West,263,0.0,10.0,99,0.00,,,0.86,Wunderground v.1.15,2013-06-09 22:55:00,
2013-06-09 19:00:00,64.9,64.6,29.99,WSW,241,0.0,10.0,99,0.00,,,0.86,Wunderground v.1.15,2013-06-09 23:00:00,
2013-06-09 19:10:00,64.8,64.5,29.99,West,264,0.0,4.0,99,0.00,,,0.86,Wunderground v.1.15,2013-06-09 23:10:00,
2013-06-09 19:15:00,64.8,64.5,29.99,West,264,0.0,4.0,99,0.00,,,0.86,Wunderground v.1.15,2013-06-09 23:15:00,
2013-06-09 19:20:00,64.8,64.5,29.99,WSW,257,0.0,4.0,99,0.00,,,0.86,Wunderground v.1.15,2013-06-09 23:20:00,
2013-06-09 19:25:00,64.8,64.5,29.99,WNW,284,0.0,4.0,99,0.00,,,0.86,Wunderground v.1.15,2013-06-09 23:25:00,
2013-06-09 19:30:00,64.8,64.5,29.99,WSW,252,0.0,4.0,99,0.00,,,0.86,Wunderground v.1.15,2013-06-09 23:30:00,
2013-06-09 19:35:00,64.8,64.5,29.99,WNW,287,0.0,4.0,99,0.00,,,0.86,Wunderground v.1.15,2013-06-09 23:35:00,
2013-06-09 19:40:00,64.8,64.5,29.99,SW,227,0.0,4.0,99,0.00,,,0.87,Wunderground v.1.15,2013-06-09 23:40:00,
2013-06-09 19:50:00,64.6,64.3,29.99,West,267,0.0,4.0,99,0.00,,,0.87,Wunderground v.1.15,2013-06-09 23:50:00,
2013-06-09 19:55:00,64.5,64.2,29.99,West,265,0.0,4.0,99,0.04,,,0.88,Wunderground v.1.15,2013-06-09 23:55:00,
2013-06-09 20:00:00,64.4,64.1,29.99,SW,235,0.0,4.0,99,0.09,,,0.89,Wunderground v.1.15,2013-06-10 00:00:00,
2013-06-09 20:05:00,64.3,64.0,29.99,SW,234,0.0,4.0,99,0.09,,,0.89,Wunderground v.1.15,2013-06-10 00:05:00,
2013-06-09 20:15:00,64.3,64.0,29.99,NNW,340,0.0,3.0,99,0.13,,,0.91,Wunderground v.1.15,2013-06-10 00:15:00,
2013-06-09 20:20:00,64.3,64.0,29.99,NNW,340,0.0,3.0,99,0.18,,,0.93,Wunderground v.1.15,2013-06-10 00:20:00,
2013-06-09 20:25:00,64.3,64.0,29.99,NNW,340,0.0,3.0,99,0.11,,,0.93,Wunderground v.1.15,2013-06-10 00:25:00,
2013-06-09 20:35:00,64.3,64.0,29.99,SW,223,0.0,3.0,99,0.09,,,0.95,Wunderground v.1.15,2013-06-10 00:35:00,
2013-06-09 20:45:00,64.3,64.0,29.99,WNW,301,0.0,3.0,99,0.07,,,0.96,Wunderground v.1.15,2013-06-10 00:45:00,
2013-06-09 20:50:00,64.3,64.0,29.99,WNW,301,0.0,3.0,99,0.09,,,0.97,Wunderground v.1.15,2013-06-10 00:50:00,
2013-06-09 20:55:00,64.3,64.0,29.99,WNW,301,0.0,3.0,99,0.09,,,0.97,Wunderground v.1.15,2013-06-10 00:55:00,
2013-06-09 21:05:00,64.3,64.0,29.99,WNW,292,0.0,3.0,99,0.66,,,1.03,Wunderground v.1.15,2013-06-10 01:05:00,
2013-06-09 21:15:00,64.3,64.0,29.99,West,264,0.0,3.0,99,0.40,,,1.17,Wunderground v.1.15,2013-06-10 01:15:00,
2013-06-09 21:20:00,64.3,64.0,29.99,West,264,0.0,3.0,99,0.22,,,1.19,Wunderground v.1.15,2013-06-10 01:20:00,
2013-06-09 21:25:00,64.3,64.0,29.98,West,264,0.0,3.0,99,0.19,,,1.22,Wunderground v.1.15,2013-06-10 01:25:00,
2013-06-09 21:30:00,64.3,64.0,29.98,NW,319,0.0,3.0,99,0.41,,,1.25,Wunderground v.1.15,2013-06-10 01:30:00,
2013-06-09 21:40:00,64.3,64.0,29.99,SW,225,0.0,3.0,99,1.15,,,1.37,Wunderground v.1.15,2013-06-10 01:40:00,
2013-06-09 21:45:00,64.3,64.0,29.99,SSW,208,0.0,3.0,99,1.03,,,1.46,Wunderground v.1.15,2013-06-10 01:45:00,
2013-06-09 21:55:00,64.3,64.0,29.99,SSW,212,0.0,3.0,99,0.07,,,1.48,Wunderground v.1.15,2013-06-10 01:55:00,
2013-06-09 22:00:00,64.3,64.0,29.99,SW,223,0.0,3.0,99,0.05,,,1.48,Wunderground v.1.15,2013-06-10 02:00:00,
2013-06-09 22:05:00,64.3,64.0,29.99,South,173,0.0,6.0,99,0.00,,,1.48,Wunderground v.1.15,2013-06-10 02:05:00,
2013-06-09 22:15:00,64.3,64.0,29.99,SW,226,0.0,6.0,99,0.00,,,1.48,Wunderground v.1.15,2013-06-10 02:15:00,
2013-06-09 22:20:00,64.3,64.0,29.99,WSW,239,0.0,6.0,99,0.00,,,1.48,Wunderground v.1.15,2013-06-10 02:20:00,
2013-06-09 22:25:00,64.3,64.3,29.99,WSW,241,0.0,6.0,100,0.00,,,1.49,Wunderground v.1.15,2013-06-10 02:25:00,
2013-06-09 22:35:00,64.3,64.3,29.99,WSW,246,0.0,6.0,100,0.00,,,1.49,Wunderground v.1.15,2013-06-10 02:35:00,
2013-06-09 22:40:00,64.3,64.3,29.99,East,90,0.0,6.0,100,0.00,,,1.49,Wunderground v.1.15,2013-06-10 02:40:00,
2013-06-09 22:45:00,64.3,64.3,29.99,SSW,198,0.0,6.0,100,0.00,,,1.49,Wunderground v.1.15,2013-06-10 02:45:00,
2013-06-09 22:50:00,64.2,63.9,29.99,SW,232,0.0,6.0,99,0.00,,,1.49,Wunderground v.1.15,2013-06-10 02:50:00,
2013-06-09 23:00:00,64.1,63.8,29.99,WSW,238,0.0,6.0,99,0.00,,,1.49,Wunderground v.1.15,2013-06-10 03:00:00,
2013-06-09 23:10:00,64.1,63.8,29.99,SW,222,0.0,7.0,99,0.68,,,1.55,Wunderground v.1.15,2013-06-10 03:10:00,
2013-06-09 23:15:00,64.0,63.7,29.99,SSE,167,0.0,7.0,99,0.23,,,1.58,Wunderground v.1.15,2013-06-10 03:15:00,
2013-06-09 23:20:00,64.0,63.7,29.99,SE,132,0.0,7.0,99,0.18,,,1.60,Wunderground v.1.15,2013-06-10 03:20:00,
2013-06-09 23:25:00,64.0,63.7,29.99,NW,318,0.0,7.0,99,0.52,,,1.64,Wunderground v.1.15,2013-06-10 03:25:00,
2013-06-09 23:35:00,64.1,64.1,29.99,West,277,0.0,7.0,100,0.20,,,1.69,Wunderground v.1.15,2013-06-10 03:35:00,
2013-06-09 23:40:00,64.1,64.1,29.99,NW,323,0.0,7.0,100,0.10,,,1.69,Wunderground v.1.15,2013-06-10 03:40:00,
2013-06-09 23:45:00,64.1,64.1,29.98,SW,220,0.0,7.0,100,0.22,,,1.71,Wunderground v.1.15,2013-06-10 03:45:00,
2013-06-09 23:50:00,64.2,64.2,29.98,NW,305,0.0,7.0,100,0.24,,,1.73,Wunderground v.1.15,2013-06-10 03:50:00,
2013-06-09 23:55:00,64.2,64.2,29.98,SSW,192,0.0,7.0,100,0.10,,,1.73,Wunderground v.1.15,2013-06-10 03:55:00,